Weather History for KMTV - June, 2013

Change the Weather History Date:

Saturday, June 29, 2013

  Actual Average (KGSO) Record (KGSO)
Temperature  
Mean Temperature 76 °F 78 °F  
Max Temperature 88 °F 87 °F 102 °F (2012)
Min Temperature 64 °F 68 °F 54 °F (1981)
Degree Days  
Heating Degree Days 0 0  
Month to date heating degree days 5  
Since 1 June heating degree days 5  
Since 1 July heating degree days 3617  
Cooling Degree Days 11 13  
Month to date cooling degree days 294  
Year to date cooling degree days 453  
Since 1 June cooling degree days 294  
Growing Degree Days 26 (Base 50)    
Moisture  
Dew Point 67 °F    
Average Humidity 76    
Maximum Humidity 99    
Minimum Humidity 45    
Precipitation  
Precipitation 0.00 in 0.12 in 1.50 in (1995)
Month to date precipitation 3.61  
Year to date precipitation 20.31  
Sea Level Pressure  
Sea Level Pressure 29.70 in    
Wind  
Wind Speed 2 mph (SSW)    
Max Wind Speed 8 mph    
Max Gust Speed -    
Visibility 8 miles    
Events Fog    
T = Trace of Precipitation, MM = Missing Value Source: NWS Daily Summary

Daily Weather History Graph

Daily Weather History Graph

Search for Another Location

Airport or City:

Trip Planner

Search our weather history database for the weather conditions in past years. The results will help you decide how hot, cold, wet, or windy it might be!

Date:

Astronomy

Jun. 29, 2013 Rise Set
Actual Time 6:04 AM EDT 8:42 PM EDT
Civil Twilight 5:33 AM EDT 9:13 PM EDT
Nautical Twilight 4:55 AM EDT 9:51 PM EDT
Astronomical Twilight 4:13 AM EDT 10:33 PM EDT
Moon 12:21 AM EDT (6/29) 1:02 PM EDT (6/29)
Length of Visible Light 15h 39m
Length of Day
14h 38m
Waning Gibbous, 56% of the Moon is Illuminated
Jun 29
Waning Gibbous
Jun 30
Last Quarter
Jul 8
New
Jul 15
First Quarter
Jul 22
Full

Hourly Weather History & Observations

Time (EDT) Temp. Heat Index Dew Point Humidity Pressure Visibility Wind Dir Wind Speed Gust Speed Precip Events Conditions
12:15 AM 71.6 °F - 66.2 °F 83% 29.70 in 10.0 mi SSW 3.5 mph - N/A   Clear
12:35 AM 71.1 °F - 66.4 °F 85% 29.70 in 10.0 mi Calm Calm - N/A   Clear
12:55 AM 70.7 °F - 66.6 °F 87% 29.69 in 10.0 mi Calm Calm - N/A   Clear
1:15 AM 69.8 °F - 66.4 °F 89% 29.68 in 10.0 mi Calm Calm - N/A   Clear
1:35 AM 69.6 °F - 66.7 °F 91% 29.68 in 10.0 mi WSW 3.5 mph - N/A   Clear
1:55 AM 69.4 °F - 66.9 °F 92% 29.66 in 10.0 mi Calm Calm - N/A   Clear
2:15 AM 68.0 °F - 66.4 °F 95% 29.66 in 10.0 mi Calm Calm - N/A   Clear
2:35 AM 67.1 °F - 65.8 °F 96% 29.65 in 7.0 mi SSE 3.5 mph - N/A   Clear
2:55 AM 67.3 °F - 66.0 °F 96% 29.65 in 10.0 mi Calm Calm - N/A   Clear
3:15 AM 67.1 °F - 65.8 °F 96% 29.65 in 7.0 mi Calm Calm - N/A   Clear
3:35 AM 66.2 °F - 65.1 °F 96% 29.65 in 3.0 mi Calm Calm - N/A   Clear
3:55 AM 66.0 °F - 65.1 °F 97% 29.65 in 5.0 mi Calm Calm - N/A   Clear
4:15 AM 64.6 °F - 63.9 °F 98% 29.66 in 4.0 mi Calm Calm - N/A   Clear
4:35 AM 64.8 °F - 64.0 °F 98% 29.66 in 5.0 mi Calm Calm - N/A   Clear
4:55 AM 64.9 °F - 64.4 °F 98% 29.67 in 5.0 mi Calm Calm - N/A   Clear
5:15 AM 64.6 °F - 63.7 °F 97% 29.68 in 4.0 mi Calm Calm - N/A   Clear
5:35 AM 65.7 °F - 65.3 °F 99% 29.68 in 7.0 mi Calm Calm - N/A   Clear
5:55 AM 66.2 °F - 65.3 °F 97% 29.68 in 3.0 mi Calm Calm - N/A   Mostly Cloudy
6:15 AM 67.1 °F - 66.4 °F 98% 29.69 in 1.2 mi Calm Calm - N/A   Overcast
6:35 AM 66.9 °F - 66.2 °F 98% 29.69 in 1.0 mi Calm Calm - N/A   Overcast
6:55 AM 66.2 °F - 65.5 °F 98% 29.70 in 0.2 mi Calm Calm - N/A Fog Fog
7:15 AM 66.9 °F - 66.4 °F 98% 29.70 in 0.5 mi Calm Calm - N/A Fog Fog
7:35 AM 67.1 °F - 66.4 °F 98% 29.70 in 0.2 mi Calm Calm - N/A Fog Fog
7:55 AM 68.0 °F - 67.1 °F 97% 29.71 in 0.5 mi Calm Calm - N/A Fog Fog
8:15 AM 70.5 °F - 68.0 °F 92% 29.70 in 10.0 mi Calm Calm - N/A   Overcast
8:35 AM 71.6 °F - 68.0 °F 88% 29.71 in 10.0 mi Calm Calm - N/A   Mostly Cloudy
8:55 AM 73.0 °F - 68.7 °F 86% 29.71 in 10.0 mi Calm Calm - N/A   Scattered Clouds
9:15 AM 76.1 °F - 68.0 °F 76% 29.72 in 10.0 mi West 3.5 mph - N/A   Scattered Clouds
9:35 AM 75.7 °F - 65.7 °F 71% 29.71 in 10.0 mi West 4.6 mph - N/A   Clear
9:55 AM 80.1 °F 82.3 °F 66.7 °F 64% 29.71 in 10.0 mi West 3.5 mph - N/A   Scattered Clouds
10:15 AM 79.5 °F - 64.9 °F 61% 29.71 in 10.0 mi Calm Calm - N/A   Scattered Clouds
10:35 AM 77.4 °F - 66.6 °F 69% 29.71 in 10.0 mi Calm Calm - N/A   Mostly Cloudy
10:55 AM 78.3 °F - 66.0 °F 66% 29.71 in 10.0 mi Calm Calm - N/A   Overcast
11:15 AM 80.2 °F 82.3 °F 66.0 °F 62% 29.72 in 10.0 mi Calm Calm - N/A   Mostly Cloudy
11:35 AM 81.5 °F 83.9 °F 67.1 °F 61% 29.72 in 10.0 mi SSW 3.5 mph - N/A   Scattered Clouds
11:55 AM 81.9 °F 84.2 °F 66.9 °F 60% 29.72 in 10.0 mi SW 3.5 mph - N/A   Clear
12:15 PM 83.1 °F 85.7 °F 66.9 °F 58% 29.72 in 10.0 mi SSW 5.8 mph - N/A   Mostly Cloudy
12:35 PM 81.9 °F 84.1 °F 66.4 °F 59% 29.71 in 10.0 mi Calm Calm - N/A   Overcast
12:55 PM 84.7 °F 86.8 °F 65.8 °F 53% 29.71 in 10.0 mi South 5.8 mph - N/A   Scattered Clouds
1:15 PM 85.6 °F 88.2 °F 66.7 °F 53% 29.71 in 10.0 mi WSW 4.6 mph - N/A   Scattered Clouds
1:35 PM 85.3 °F 87.6 °F 66.4 °F 53% 29.71 in 10.0 mi SW 6.9 mph - N/A   Scattered Clouds
1:55 PM 86.7 °F 88.7 °F 65.5 °F 49% 29.70 in 10.0 mi SW 4.6 mph - N/A   Scattered Clouds
2:15 PM 87.1 °F 88.0 °F 63.1 °F 45% 29.70 in 10.0 mi WSW 3.5 mph - N/A   Clear
2:35 PM 86.7 °F 87.5 °F 63.3 °F 45% 29.69 in 10.0 mi South 6.9 mph - N/A   Clear
2:55 PM 87.8 °F 89.4 °F 64.6 °F 46% 29.69 in 10.0 mi South 6.9 mph - N/A   Scattered Clouds
3:15 PM 84.4 °F 85.4 °F 63.5 °F 49% 29.69 in 10.0 mi South 3.5 mph - N/A   Scattered Clouds
3:35 PM 84.2 °F 85.8 °F 64.6 °F 52% 29.69 in 10.0 mi Calm Calm - N/A   Mostly Cloudy
3:55 PM 85.3 °F 87.4 °F 65.8 °F 52% 29.68 in 10.0 mi WSW 5.8 mph - N/A   Mostly Cloudy
4:15 PM 88.0 °F 90.3 °F 66.0 °F 48% 29.68 in 10.0 mi SW 5.8 mph - N/A   Scattered Clouds
4:35 PM 87.1 °F 89.9 °F 66.9 °F 51% 29.68 in 10.0 mi SW 5.8 mph - N/A   Clear
4:55 PM 84.2 °F 86.8 °F 67.1 °F 56% 29.68 in 10.0 mi SSW 4.6 mph - N/A   Clear
5:15 PM 86.5 °F 89.6 °F 67.6 °F 53% 29.68 in 10.0 mi SSW 4.6 mph - N/A   Clear
5:35 PM 84.9 °F 87.6 °F 67.3 °F 55% 29.68 in 10.0 mi South 8.1 mph - N/A   Clear
5:55 PM 84.9 °F 87.6 °F 66.9 °F 55% 29.68 in 10.0 mi South 3.5 mph - N/A   Clear
6:15 PM 85.1 °F 88.2 °F 67.6 °F 56% 29.68 in 10.0 mi SSW 6.9 mph - N/A   Scattered Clouds
6:35 PM 85.1 °F 88.2 °F 68.0 °F 56% 29.68 in 10.0 mi SSW 6.9 mph - N/A   Clear
6:55 PM 84.7 °F 87.9 °F 68.2 °F 57% 29.69 in 10.0 mi South 4.6 mph - N/A   Clear
7:15 PM 84.4 °F 87.9 °F 68.7 °F 59% 29.70 in 10.0 mi Calm Calm - N/A   Scattered Clouds
7:35 PM 83.5 °F 86.9 °F 68.9 °F 61% 29.70 in 10.0 mi SSW 4.6 mph - N/A   Scattered Clouds
7:55 PM 81.1 °F 84.2 °F 68.9 °F 66% 29.71 in 10.0 mi SSW 3.5 mph - N/A   Clear
8:15 PM 80.1 °F 82.9 °F 69.1 °F 69% 29.71 in 10.0 mi Calm Calm - N/A   Clear
8:35 PM 78.8 °F - 69.3 °F 72% 29.72 in 10.0 mi SSE 3.5 mph - N/A   Clear
8:55 PM 78.1 °F - 69.3 °F 74% 29.72 in 10.0 mi SSE 3.5 mph - N/A   Clear
9:15 PM 76.6 °F - 69.4 °F 78% 29.72 in 10.0 mi Calm Calm - N/A   Clear
9:35 PM 75.0 °F - 69.3 °F 82% 29.73 in 10.0 mi Calm Calm - N/A   Clear
9:55 PM 72.9 °F - 69.6 °F 90% 29.73 in 10.0 mi Calm Calm - N/A   Clear
10:15 PM 71.4 °F - 68.7 °F 91% 29.74 in 10.0 mi Calm Calm - N/A   Clear
10:35 PM 71.2 °F - 68.9 °F 92% 29.75 in 10.0 mi Calm Calm - N/A   Clear
10:55 PM 70.7 °F - 68.7 °F 93% 29.75 in 10.0 mi Calm Calm - N/A   Clear
11:15 PM 70.3 °F - 68.2 °F 93% 29.74 in 10.0 mi Calm Calm - N/A   Clear
11:35 PM 69.8 °F - 68.0 °F 94% 29.76 in 7.0 mi Calm Calm - N/A   Clear
11:55 PM 70.7 °F - 68.9 °F 94% 29.77 in 10.0 mi NW 4.6 mph - N/A   Mostly Cloudy